K5MGY Weather Reports


time (UTC)temp
C
wind
direction
speed
KPH
gust
KPH
rain 1hr
cm
rain 24hr
cm
rain mn
cm
humidity
%
barometer
mb
20260906234437 36 235 1.6 3.2 0.00 0.00 0.00 40 1034.8
20260906233931 36 222 0.0 1.6 0.00 0.00 0.00 41 1034.8
20260906233431 36 279 0.0 1.6 0.00 0.00 0.00 40 1034.4
20260906232930 36 245 0.0 0.0 0.00 0.00 0.00 40 1034.4
20260906232425 36 207 1.6 3.2 0.00 0.00 0.00 40 1034.7
20260906231920 36 245 0.0 0.0 0.00 0.00 0.00 39 1034.5
20260906231415 37 163 0.0 1.6 0.00 0.00 0.00 39 1034.5
20260906230914 37 257 0.0 1.6 0.00 0.00 0.00 39 1034.6
20260906230409 37 240 0.0 1.6 0.00 0.00 0.00 39 1034.4
20260906225908 37 249 0.0 0.0 0.00 0.00 0.00 39 1034.5
20260906225403 37 210 1.6 4.8 0.00 0.00 0.00 38 1034.6
20260906224859 37 299 0.0 1.6 0.00 0.00 0.00 37 1034.7
20260906224355 37 275 0.0 1.6 0.00 0.00 0.00 37 1034.5
20260906223851 37 191 0.0 1.6 0.00 0.00 0.00 37 1034.6
20260906223347 37 255 0.0 3.2 0.00 0.00 0.00 37 1034.6
20260906222845 37 196 1.6 1.6 0.00 0.00 0.00 37 1034.7
20260906222344 37 220 6.4 12.9 0.00 0.00 0.00 37 1034.7
20260906221842 37 249 0.0 3.2 0.00 0.00 0.00 37 1034.9
20260906221342 37 227 3.2 4.8 0.00 0.00 0.00 37 1034.9
20260906220837 37 319 0.0 1.6 0.00 0.00 0.00 37 1034.7
20260906220332 37 249 1.6 9.7 0.00 0.00 0.00 38 1034.7
20260906215831 37 213 0.0 1.6 0.00 0.00 0.00 37 1034.7
20260906215326 37 203 1.6 4.8 0.00 0.00 0.00 38 1034.8
20260906214824 38 169 3.2 4.8 0.00 0.00 0.00 38 1034.7
20260906214319 38 267 0.0 3.2 0.00 0.00 0.00 37 1034.6
20260906213818 38 297 0.0 3.2 0.00 0.00 0.00 37 1035.0
20260906213313 38 188 0.0 3.2 0.00 0.00 0.00 38 1035.1
20260906212810 38 291 0.0 3.2 0.00 0.00 0.00 37 1035.2
20260906212306 38 254 0.0 1.6 0.00 0.00 0.00 37 1035.1
20260906211806 38 280 0.0 1.6 0.00 0.00 0.00 37 1035.5
20260906211301 38 284 1.6 9.7 0.00 0.00 0.00 37 1035.2
20260906210756 38 184 1.6 3.2 0.00 0.00 0.00 37 1035.5
20260906210255 38 156 1.6 3.2 0.00 0.00 0.00 37 1035.4
20260906205756 38 290 0.0 3.2 0.00 0.00 0.00 37 1035.3
20260906205252 38 292 0.0 1.6 0.00 0.00 0.00 38 1035.4
20260906204748 38 162 1.6 4.8 0.00 0.00 0.00 38 1035.5
20260906204247 38 277 1.6 1.6 0.00 0.00 0.00 37 1035.6
20260906203746 38 284 0.0 3.2 0.00 0.00 0.00 37 1035.5
20260906203242 39 203 0.0 3.2 0.00 0.00 0.00 37 1035.6
20260906202738 39 312 0.0 1.6 0.00 0.00 0.00 37 1035.6
20260906202238 39 164 0.0 1.6 0.00 0.00 0.00 37 1035.8
20260906201733 38 232 0.0 4.8 0.00 0.00 0.00 37 1035.8
20260906201232 38 292 0.0 4.8 0.00 0.00 0.00 39 1035.9
20260906200728 38 176 4.8 6.4 0.00 0.00 0.00 39 1035.9
20260906200224 39 213 4.8 9.7 0.00 0.00 0.00 37 1036.1
20260906195719 38 245 0.0 1.6 0.00 0.00 0.00 37 1036.3
20260906195216 38 289 0.0 1.6 0.00 0.00 0.00 37 1036.2
20260906194711 38 272 1.6 4.8 0.00 0.00 0.00 39 1036.3
20260906194206 38 204 1.6 3.2 0.00 0.00 0.00 39 1036.3
20260906193701 37 230 0.0 1.6 0.00 0.00 0.00 40 1036.6
20260906193156 38 283 0.0 1.6 0.00 0.00 0.00 39 1036.4
20260906192652 38 274 0.0 1.6 0.00 0.00 0.00 39 1036.3
20260906192152 38 265 0.0 1.6 0.00 0.00 0.00 39 1036.5
20260906191646 38 240 9.7 12.9 0.00 0.00 0.00 39 1036.7
20260906191146 38 240 1.6 3.2 0.00 0.00 0.00 39 1036.7
20260906190640 38 256 3.2 4.8 0.00 0.00 0.00 40 1036.6
20260906190135 37 293 0.0 1.6 0.00 0.00 0.00 42 1036.7
20260906185634 37 273 3.2 11.3 0.00 0.00 0.00 42 1037.1
20260906185133 38 113 4.8 9.7 0.00 0.00 0.00 40 1037.0
20260906184627 37 147 4.8 6.4 0.00 0.00 0.00 40 1036.9
20260906184124 37 184 0.0 3.2 0.00 0.00 0.00 42 1037.1
20260906183619 38 144 9.7 12.9 0.00 0.00 0.00 41 1037.0
20260906183115 38 251 0.0 3.2 0.00 0.00 0.00 40 1037.2
20260906182609 37 284 0.0 0.0 0.00 0.00 0.00 41 1037.4
20260906182106 37 267 0.0 3.2 0.00 0.00 0.00 42 1037.3
20260906181601 37 166 3.2 6.4 0.00 0.00 0.00 41 1037.4
20260906181057 37 182 1.6 6.4 0.00 0.00 0.00 42 1037.5
20260906180557 37 204 1.6 3.2 0.00 0.00 0.00 42 1037.5
20260906180056 37 186 3.2 3.2 0.00 0.00 0.00 43 1037.6
20260906175555 37 165 4.8 9.7 0.00 0.00 0.00 43 1037.6
20260906175050 37 266 0.0 3.2 0.00 0.00 0.00 43 1037.9
20260906174548 37 248 0.0 1.6 0.00 0.00 0.00 44 1038.0
20260906174043 37 269 1.6 1.6 0.00 0.00 0.00 44 1037.8
20260906173538 37 284 1.6 3.2 0.00 0.00 0.00 44 1038.0
20260906173035 37 274 0.0 1.6 0.00 0.00 0.00 43 1038.2
20260906172529 36 299 0.0 1.6 0.00 0.00 0.00 47 1038.2
20260906172024 37 282 1.6 4.8 0.00 0.00 0.00 45 1038.3
20260906171519 37 175 1.6 1.6 0.00 0.00 0.00 45 1038.7
20260906171015 37 328 1.6 3.2 0.00 0.00 0.00 44 1038.4
20260906170510 37 244 0.0 4.8 0.00 0.00 0.00 46 1038.6
20260906170008 37 280 1.6 4.8 0.00 0.00 0.00 46 1038.7
20260906165506 36 243 1.6 1.6 0.00 0.00 0.00 47 1038.8
20260906165001 36 223 3.2 4.8 0.00 0.00 0.00 47 1038.6
20260906164459 36 215 0.0 4.8 0.00 0.00 0.00 48 1038.6
20260906163956 36 203 1.6 4.8 0.00 0.00 0.00 46 1038.7
20260906163451 36 258 0.0 1.6 0.00 0.00 0.00 48 1038.9
20260906162950 35 252 1.6 3.2 0.00 0.00 0.00 48 1039.0
20260906162448 35 316 1.6 3.2 0.00 0.00 0.00 48 1038.9
20260906161943 35 142 1.6 6.4 0.00 0.00 0.00 50 1038.8
20260906161438 35 179 1.6 3.2 0.00 0.00 0.00 50 1038.8
20260906160937 35 213 1.6 1.6 0.00 0.00 0.00 51 1038.6
20260906160436 35 266 0.0 3.2 0.00 0.00 0.00 53 1038.7
20260906155935 35 224 0.0 1.6 0.00 0.00 0.00 53 1038.7
20260906155433 35 271 0.0 3.2 0.00 0.00 0.00 53 1038.6
20260906154931 35 184 3.2 4.8 0.00 0.00 0.00 53 1038.8
20260906154431 34 233 1.6 1.6 0.00 0.00 0.00 54 1038.8
20260906153929 34 158 3.2 3.2 0.00 0.00 0.00 55 1038.8
20260906153428 33 225 1.6 1.6 0.00 0.00 0.00 57 1038.9
20260906152924 33 183 1.6 1.6 0.00 0.00 0.00 57 1038.7
20260906152424 33 281 1.6 4.8 0.00 0.00 0.00 57 1038.6
20260906151923 33 206 1.6 1.6 0.00 0.00 0.00 57 1038.6
20260906151419 32 292 0.0 0.0 0.00 0.00 0.00 60 1038.7
20260906150914 31 239 0.0 3.2 0.00 0.00 0.00 62 1038.5
20260906150409 31 203 1.6 3.2 0.00 0.00 0.00 62 1038.6
20260906145908 31 254 0.0 4.8 0.00 0.00 0.00 63 1038.6
20260906145407 31 211 3.2 4.8 0.00 0.00 0.00 64 1038.7
20260906144902 31 200 1.6 3.2 0.00 0.00 0.00 64 1038.7
20260906144357 31 199 1.6 3.2 0.00 0.00 0.00 64 1038.5
20260906143853 31 252 0.0 0.0 0.00 0.00 0.00 65 1038.7
20260906143348 30 164 1.6 3.2 0.00 0.00 0.00 66 1038.5
20260906142844 30 174 3.2 3.2 0.00 0.00 0.00 66 1038.5
20260906142338 30 198 1.6 4.8 0.00 0.00 0.00 67 1038.5
20260906141838 30 201 1.6 3.2 0.00 0.00 0.00 68 1038.4
20260906141333 30 180 1.6 3.2 0.00 0.00 0.00 66 1038.3
20260906140831 30 209 0.0 1.6 0.00 0.00 0.00 67 1038.6
20260906140322 30 244 0.0 1.6 0.00 0.00 0.00 69 1038.6
20260906135819 29 206 1.6 1.6 0.00 0.00 0.00 70 1038.5
20260906135314 28 222 0.0 0.0 0.00 0.00 0.00 73 1038.4
20260906134809 28 183 1.6 3.2 0.00 0.00 0.00 74 1038.2
20260906134304 27 208 1.6 1.6 0.00 0.00 0.00 77 1038.5
20260906133800 27 207 1.6 3.2 0.00 0.00 0.00 79 1038.3
20260906133255 26 226 0.0 1.6 0.00 0.00 0.00 80 1038.5
20260906132751 26 247 0.0 0.0 0.00 0.00 0.00 81 1038.6
20260906132246 26 232 0.0 0.0 0.00 0.00 0.00 82 1038.3
20260906131742 26 204 1.6 3.2 0.00 0.00 0.00 83 1038.2
20260906131236 26 248 0.0 0.0 0.00 0.00 0.00 84 1038.2
20260906130732 25 238 0.0 0.0 0.00 0.00 0.00 85 1038.3
20260906130227 25 239 0.0 0.0 0.00 0.00 0.00 86 1038.3
20260906125725 25 249 0.0 0.0 0.00 0.00 0.00 87 1038.4
20260906125224 25 249 0.0 0.0 0.00 0.00 0.00 87 1038.1
20260906124723 25 249 0.0 0.0 0.00 0.00 0.00 87 1038.1
20260906124219 24 249 0.0 0.0 0.00 0.00 0.00 87 1038.0
20260906123718 24 249 0.0 0.0 0.00 0.00 0.00 87 1038.1
20260906123214 24 249 0.0 0.0 0.00 0.00 0.00 87 1038.2
20260906122713 24 249 0.0 0.0 0.00 0.00 0.00 86 1038.0
20260906122208 24 249 0.0 0.0 0.00 0.00 0.00 86 1038.0
20260906121705 24 249 0.0 0.0 0.00 0.00 0.00 86 1037.8
20260906121200 24 249 0.0 0.0 0.00 0.00 0.00 86 1038.0
20260906120656 24 249 0.0 0.0 0.00 0.00 0.00 85 1037.8
20260906120154 24 249 0.0 0.0 0.00 0.00 0.00 85 1037.9
20260906115654 25 249 0.0 0.0 0.00 0.00 0.00 84 1038.1
20260906115149 25 249 0.0 0.0 0.00 0.00 0.00 84 1037.6
20260906114648 25 249 0.0 0.0 0.00 0.00 0.00 84 1037.5
20260906114143 25 249 0.0 0.0 0.00 0.00 0.00 84 1037.6
20260906113637 25 249 0.0 0.0 0.00 0.00 0.00 84 1037.6
20260906113132 25 249 0.0 0.0 0.00 0.00 0.00 84 1037.4
20260906112631 25 249 0.0 0.0 0.00 0.00 0.00 83 1037.5
20260906112129 25 249 0.0 0.0 0.00 0.00 0.00 83 1037.4
20260906111627 25 249 0.0 0.0 0.00 0.00 0.00 83 1037.5
20260906111117 25 249 0.0 0.0 0.00 0.00 0.00 83 1037.4
20260906110612 25 249 0.0 0.0 0.00 0.00 0.00 83 1037.2
20260906110112 25 249 0.0 0.0 0.00 0.00 0.00 83 1037.3
20260906105607 25 249 0.0 0.0 0.00 0.00 0.00 83 1037.4
20260906105103 25 249 0.0 0.0 0.00 0.00 0.00 83 1037.2
20260906104602 25 249 0.0 0.0 0.00 0.00 0.00 83 1037.4
20260906104055 25 249 0.0 0.0 0.00 0.00 0.00 82 1037.3
20260906103554 25 249 0.0 0.0 0.00 0.00 0.00 82 1037.3
20260906103050 25 249 0.0 0.0 0.00 0.00 0.00 82 1037.2
20260906102549 25 249 0.0 0.0 0.00 0.00 0.00 82 1037.3
20260906102044 25 249 0.0 0.0 0.00 0.00 0.00 82 1037.1
20260906101539 25 249 0.0 0.0 0.00 0.00 0.00 81 1037.0
20260906101033 25 249 0.0 0.0 0.00 0.00 0.00 81 1036.9
20260906100530 25 249 0.0 0.0 0.00 0.00 0.00 81 1037.1
20260906100029 25 249 0.0 0.0 0.00 0.00 0.00 81 1036.9
20260906095524 25 249 0.0 0.0 0.00 0.00 0.00 80 1036.7
20260906095020 25 249 0.0 0.0 0.00 0.00 0.00 80 1036.7
20260906094518 25 249 0.0 0.0 0.00 0.00 0.00 80 1036.6
20260906094014 25 249 0.0 0.0 0.00 0.00 0.00 80 1036.7
20260906093510 26 249 0.0 0.0 0.00 0.00 0.00 80 1036.5
20260906093011 26 249 0.0 0.0 0.00 0.00 0.00 79 1036.5
20260906092505 26 249 0.0 0.0 0.00 0.00 0.00 79 1036.4
20260906092001 26 249 0.0 0.0 0.00 0.00 0.00 78 1036.4
20260906091456 26 249 0.0 0.0 0.00 0.00 0.00 78 1036.6
20260906090953 26 249 0.0 0.0 0.00 0.00 0.00 77 1036.6
20260906090448 26 249 0.0 0.0 0.00 0.00 0.00 77 1036.5
20260906085947 26 242 0.0 0.0 0.00 0.00 0.00 76 1036.2
20260906085447 26 231 0.0 1.6 0.00 0.00 0.00 76 1036.5
20260906084946 27 245 0.0 0.0 0.00 0.00 0.00 75 1036.3
20260906084441 27 245 0.0 0.0 0.00 0.00 0.00 75 1036.3
20260906083940 27 235 0.0 0.0 0.00 0.00 0.00 75 1036.4
20260906083436 27 242 0.0 1.6 0.00 0.00 0.00 74 1036.3
20260906082935 27 207 0.0 1.6 0.00 0.00 0.00 74 1036.5
20260906082430 27 229 0.0 1.6 0.00 0.00 0.00 74 1036.4
20260906081926 27 139 3.2 4.8 0.00 0.00 0.00 74 1036.4
20260906081421 27 226 0.0 1.6 0.00 0.00 0.00 74 1036.2
20260906080917 27 246 1.6 3.2 0.00 0.00 0.00 73 1036.3
20260906080414 27 228 0.0 1.6 0.00 0.00 0.00 73 1036.4
20260906075913 27 229 1.6 3.2 0.00 0.00 0.00 73 1036.5
20260906075408 27 186 1.6 3.2 0.00 0.00 0.00 73 1036.6
20260906074903 27 240 1.6 3.2 0.00 0.00 0.00 73 1036.5
20260906074402 27 209 1.6 3.2 0.00 0.00 0.00 73 1036.6
20260906073901 27 236 0.0 1.6 0.00 0.00 0.00 72 1036.5
20260906073356 27 218 3.2 3.2 0.00 0.00 0.00 72 1036.6
20260906072853 27 194 3.2 6.4 0.00 0.00 0.00 72 1036.4
20260906072348 28 179 3.2 4.8 0.00 0.00 0.00 72 1036.3
20260906071844 28 212 1.6 6.4 0.00 0.00 0.00 72 1036.4
20260906071339 28 231 3.2 4.8 0.00 0.00 0.00 72 1036.7
20260906070836 28 239 3.2 3.2 0.00 0.00 0.00 72 1036.7
20260906070331 28 197 1.6 4.8 0.00 0.00 0.00 72 1036.5
20260906065827 28 235 1.6 3.2 0.00 0.00 0.00 71 1036.9
20260906065321 28 135 4.8 6.4 0.00 0.00 0.00 71 1036.9
20260906064817 28 203 3.2 6.4 0.00 0.00 0.00 71 1036.7
20260906064313 28 162 1.6 3.2 0.00 0.00 0.00 71 1037.1
20260906063813 28 227 1.6 6.4 0.00 0.00 0.00 71 1037.2
20260906063308 28 207 3.2 4.8 0.00 0.00 0.00 71 1037.0
20260906062803 28 231 0.0 3.2 0.00 0.00 0.00 71 1037.2
20260906062306 28 216 1.6 3.2 0.00 0.00 0.00 70 1037.1
20260906061758 28 229 1.6 3.2 0.00 0.00 0.00 70 1037.3
20260906061255 28 196 1.6 3.2 0.00 0.00 0.00 70 1037.3
20260906060755 28 174 3.2 4.8 0.00 0.00 0.00 70 1037.4
20260906060253 28 193 3.2 4.8 0.00 0.00 0.00 70 1037.2
20260906055748 29 169 3.2 4.8 0.00 0.00 0.00 69 1037.1
20260906055243 29 179 3.2 3.2 0.00 0.00 0.00 69 1037.1
20260906054738 29 223 1.6 4.8 0.00 0.00 0.00 69 1037.1
20260906054234 29 211 0.0 1.6 0.00 0.00 0.00 69 1037.1
20260906053730 29 212 1.6 3.2 0.00 0.00 0.00 69 1037.1
20260906053226 29 179 3.2 3.2 0.00 0.00 0.00 69 1037.0
20260906052721 29 172 1.6 4.8 0.00 0.00 0.00 69 1036.9
20260906052217 29 222 1.6 3.2 0.00 0.00 0.00 69 1036.9
20260906051714 29 208 1.6 1.6 0.00 0.00 0.00 69 1036.9
20260906051213 29 220 1.6 3.2 0.00 0.00 0.00 69 1036.9
20260906050708 29 202 1.6 4.8 0.00 0.00 0.00 68 1036.9
20260906050203 29 177 3.2 3.2 0.00 0.00 0.00 68 1036.7
20260906045701 30 172 3.2 3.2 0.00 0.00 0.00 68 1037.0
20260906045157 30 187 0.0 3.2 0.00 0.00 0.00 68 1036.9
20260906044653 30 225 1.6 3.2 0.00 0.00 0.00 67 1037.1
20260906044148 30 133 3.2 4.8 0.00 0.00 0.00 67 1036.9
20260906043644 30 184 1.6 3.2 0.00 0.00 0.00 67 1036.9
20260906043140 30 199 1.6 6.4 0.00 0.00 0.00 66 1037.0
20260906042639 30 214 3.2 4.8 0.00 0.00 0.00 66 1037.0
20260906042133 30 247 0.0 1.6 0.00 0.00 0.00 65 1037.0
20260906041630 30 193 1.6 3.2 0.00 0.00 0.00 65 1036.7
20260906041129 30 227 0.0 3.2 0.00 0.00 0.00 65 1037.0
20260906040625 30 234 0.0 1.6 0.00 0.00 0.00 65 1036.9
20260906040121 30 229 1.6 3.2 0.00 0.00 0.00 64 1036.6
20260906035616 30 234 1.6 1.6 0.00 0.00 0.00 64 1036.7
20260906035112 30 207 1.6 3.2 0.00 0.00 0.00 64 1036.6
20260906034611 30 235 0.0 3.2 0.00 0.00 0.00 63 1036.7
20260906034106 30 203 3.2 3.2 0.00 0.00 0.00 63 1037.1
20260906033602 30 189 1.6 4.8 0.00 0.00 0.00 63 1036.9
20260906033057 30 200 1.6 3.2 0.00 0.00 0.00 63 1037.0
20260906032554 30 154 3.2 4.8 0.00 0.00 0.00 63 1037.0
20260906032053 30 241 1.6 4.8 0.00 0.00 0.00 63 1036.9
20260906031549 30 229 0.0 3.2 0.00 0.00 0.00 62 1037.1
20260906031044 30 163 3.2 4.8 0.00 0.00 0.00 62 1037.1
20260906030543 30 147 6.4 9.7 0.00 0.00 0.00 62 1036.9
20260906030038 30 167 3.2 3.2 0.00 0.00 0.00 61 1036.7
20260906025538 30 221 1.6 4.8 0.00 0.00 0.00 61 1036.7
20260906025036 30 246 1.6 4.8 0.00 0.00 0.00 61 1036.7
20260906024531 30 162 3.2 6.4 0.00 0.00 0.00 61 1036.7
20260906024031 31 159 4.8 9.7 0.00 0.00 0.00 61 1036.9
20260906023527 31 210 1.6 6.4 0.00 0.00 0.00 61 1036.7
20260906023022 31 207 3.2 4.8 0.00 0.00 0.00 61 1036.5
20260906022517 31 148 4.8 9.7 0.00 0.00 0.00 60 1036.2
20260906022013 31 176 3.2 4.8 0.00 0.00 0.00 60 1036.2
20260906021509 31 236 0.0 3.2 0.00 0.00 0.00 60 1036.2
20260906021008 31 250 3.2 11.3 0.00 0.00 0.00 59 1036.0
20260906020507 31 231 1.6 6.4 0.00 0.00 0.00 59 1036.1
20260906020007 31 129 3.2 9.7 0.00 0.00 0.00 59 1036.0
20260906015506 31 213 3.2 4.8 0.00 0.00 0.00 59 1035.8
20260906015007 31 112 4.8 11.3 0.00 0.00 0.00 59 1035.8
20260906014501 31 168 4.8 6.4 0.00 0.00 0.00 59 1035.8
20260906013957 31 249 1.6 14.5 0.00 0.00 0.00 58 1035.7
20260906013452 31 200 4.8 6.4 0.00 0.00 0.00 58 1035.5
20260906012949 31 129 8.0 11.3 0.00 0.00 0.00 58 1035.4
20260906012449 31 232 3.2 9.7 0.00 0.00 0.00 57 1035.5
20260906011948 32 155 1.6 3.2 0.00 0.00 0.00 57 1035.3
20260906011444 32 267 6.4 11.3 0.00 0.00 0.00 56 1035.3
20260906010939 32 135 1.6 6.4 0.00 0.00 0.00 55 1035.2
20260906010434 32 181 4.8 9.7 0.00 0.00 0.00 54 1035.1
20260906005930 32 167 4.8 4.8 0.00 0.00 0.00 54 1035.1
20260906005430 32 221 0.0 1.6 0.00 0.00 0.00 53 1034.9
20260906004928 33 24 1.6 11.3 0.00 0.00 0.00 52 1034.9
20260906004422 33 152 3.2 6.4 0.00 0.00 0.00 51 1035.1
20260906003918 34 259 1.6 3.2 0.00 0.00 0.00 50 1035.0
20260906003413 35 52 0.0 4.8 0.00 0.00 0.00 47 1034.9
20260906002908 35 261 1.6 3.2 0.00 0.00 0.00 43 1034.8
20260906002403 35 199 1.6 1.6 0.00 0.00 0.00 42 1034.7
20260906001858 35 296 1.6 3.2 0.00 0.00 0.00 42 1034.7
20260906001354 35 246 0.0 3.2 0.00 0.00 0.00 42 1034.6
20260906000854 35 227 0.0 1.6 0.00 0.00 0.00 41 1034.6
20260906000355 35 326 1.6 1.6 0.00 0.00 0.00 41 1034.7
20260905235848 36 316 0.0 1.6 0.00 0.00 0.00 41 1034.6
20260905235343 36 155 0.0 3.2 0.00 0.00 0.00 40 1034.4
20260905234838 36 225 1.6 3.2 0.00 0.00 0.00 40 1034.6